[[{"header":{"parameterUnit":"m.s-1","parameterCategory":2,"la1":30.2991,"la2":30.254,"lo1":-89.0895,"lo2":-89.0444,"dy":0.0017,"dx":0.0017,"nx":28,"ny":28,"refTime":"2023-08-01T21:00:00:Z","depth":"0","parameterNumber":2,"parameterNumberName":"U-component_of_CURRENTS"},"data":[0,0,0,0,0,0,0,0,0,0,0,0,0,0,0,0,0,0,0,0,0,0,0,0,0,0,0,0,0,0,0,0,0,0,0,0,0,0,0,0,0,0,0,0,0,0,0,0,0,0,0,0,0,0,0,0,0,0,0.0735,0.0737,0,0.0841,0.0841,0.0842,0.0857,0.0857,0.0857,0.0857,0.098,0.0983,0.0986,0,0,0,0,0,0,0,0,0,0,0,0,0,0.0469,0.0474,0.0735,0.0737,0.0739,0.0841,0.0841,0.0842,0.0857,0.0857,0.0857,0.0856,0.0979,0.0983,0.0987,0,0,0,0,0,0,0,0,0,0,0,0,0,0.0573,0.0475,0.0734,0.0765,0.0769,0.084,0.0841,0.0842,0.0857,0.0857,0.0857,0.0856,0.0977,0.0982,0.0987,0.1025,0,0,0.1003,0.1005,0,0,0,0,0,0,0,0,0.0567,0.0581,0.0758,0.0763,0.0768,0.0843,0.0793,0.0907,0.0857,0.0815,0.0857,0.0856,0.0942,0.095,0.0957,0.103,0.1036,0.1004,0.1007,0.1009,0.101,0,0,0,0,0,0,0,0.056,0.0576,0.0768,0.0761,0.0767,0.0748,0.0762,0.0814,0.0872,0.0818,0.0822,0.0848,0.0943,0.0952,0.0961,0.1038,0.1003,0.1008,0.1011,0.1013,0.1203,0.1204,0,0,0,0,0,0,0.0569,0.0571,0.0765,0.0772,0.0675,0.0754,0.0769,0.0812,0.0871,0.0882,0.0848,0.0848,0.0944,0.0955,0.0965,0.1107,0.1009,0.1014,0.1017,0.1201,0.1203,0.1205,0,0,0,0,0,0,0.0564,0.0586,0.076,0.0679,0.0701,0.0761,0.0807,0.0815,0.0833,0.0895,0.0904,0.0861,0.0944,0.0958,0.1059,0.1108,0.1016,0.1021,0.1198,0.1201,0.1204,0.1331,0,0,0,0,0,0,0.0556,0.0584,0.0623,0.0681,0.0706,0.0824,0.0809,0.0817,0.0853,0.0855,0.091,0.092,0.0945,0.1052,0.1064,0.1114,0.1025,0.1196,0.12,0.1203,0.1324,0.1338,0.1349,0,0,0,0,0,0.0546,0.0619,0.0624,0.0648,0.0757,0.0827,0.0838,0.0871,0.0854,0.088,0.0935,0.0919,0.1081,0.1059,0.1073,0.1125,0.1194,0.1199,0.1203,0.1318,0.1335,0.1349,0,0,0,0,0,0,0.0527,0.063,0.0636,0.0736,0.0781,0.0833,0.0882,0.0875,0.0933,0.0941,0.0968,0.0986,0.1087,0.1085,0.1059,0.1184,0.1125,0.1132,0.1207,0.1223,0.1235,0.1301,0.1029,0,0,0,0,0,0.054,0.0617,0.0687,0.076,0.0798,0.0828,0.0861,0.0875,0.0932,0.0953,0.0993,0.1041,0.1113,0.1152,0.1205,0.1287,0.1348,0.1318,0.133,0.1341,0.1402,0.1541,0.1574,0.1219,0.1219,0.1219,0,0,0.0556,0.0618,0.0664,0.076,0.0803,0.088,0.0847,0.0911,0.0971,0.0963,0.1066,0.1095,0.1145,0.1247,0.1287,0.1256,0.1471,0.1347,0.1356,0.1413,0.1549,0.1585,0.1616,0.1222,0.1222,0.1221,0,0,0.0618,0.068,0.0761,0.0814,0.089,0.0922,0.094,0.0998,0.1028,0.1124,0.1136,0.122,0.1295,0.1367,0.1406,0.1519,0.1535,0.1489,0.1616,0.1749,0.1781,0.181,0.193,0.1969,0.1493,0.1493,0.1493,0,0.0629,0.0749,0.0789,0.0874,0.0943,0.0945,0.1037,0.1076,0.115,0.1208,0.1177,0.1352,0.1374,0.1542,0.1576,0.1557,0.1623,0.1557,0.1772,0.1802,0.183,0.1945,0.1987,0.1499,0.1499,0.1498,0.1497,0,0.0747,0.0846,0.0905,0.1023,0.1082,0.1169,0.1231,0.1282,0.1307,0.1355,0.1506,0.156,0.1672,0.1665,0.1667,0.1857,0.1838,0.1776,0.1745,0.1874,0.1986,0.2027,0.1509,0.1507,0.1505,0.1503,0,0,0.0805,0.0959,0.0988,0.1063,0.1177,0.1242,0.1351,0.1475,0.1564,0.1632,0.1777,0.1895,0.1911,0.196,0.1956,0.2063,0.2294,0.2008,0.2012,0.2149,0.26,0.2581,0.2622,0.2266,0.2274,0.228,0.26,0,0.0901,0.107,0.1129,0.13,0.1407,0.1453,0.1561,0.1655,0.1725,0.1854,0.194,0.2065,0.2025,0.2074,0.2196,0.2251,0.2408,0.2214,0.2438,0.2446,0.2431,0.2672,0.2552,0.2827,0.2639,0.2646,0.2651,0,0.1039,0.1131,0.13,0.1465,0.1517,0.1602,0.1776,0.1863,0.2022,0.2083,0.2229,0.2271,0.2461,0.2376,0.2655,0.2528,0.2618,0.266,0.2671,0.2653,0.2505,0.2666,0.2907,0.2859,0.2713,0.2708,0.2704,0,0.1103,0.1281,0.1414,0.1474,0.1635,0.1715,0.1796,0.1942,0.2031,0.2223,0.2307,0.2524,0.2616,0.2786,0.2878,0.2787,0.3165,0.3035,0.3135,0.3131,0.308,0.306,0.3328,0.3313,0.3312,0.3312,0.3311,0,0.1244,0.1364,0.1447,0.1535,0.1678,0.1768,0.1925,0.2028,0.2182,0.2326,0.2425,0.2579,0.2721,0.2912,0.3004,0.3225,0.3291,0.3261,0.3257,0.3114,0.3095,0.3083,0.3028,0.3323,0.3321,0.3318,0.3316,0,0.135,0.141,0.1554,0.1686,0.172,0.182,0.1958,0.2082,0.2203,0.239,0.2456,0.2663,0.2914,0.3071,0.3336,0.3374,0.3526,0.3638,0.3457,0.3428,0.3413,0.3367,0.3549,0.3512,0.3816,0.3818,0.382,0,0.1458,0.1528,0.1619,0.169,0.1759,0.1876,0.1972,0.2088,0.2208,0.2451,0.2567,0.2823,0.3005,0.3384,0.3536,0.3774,0.3669,0.3782,0.3601,0.3508,0.3455,0.3281,0.3222,0.3581,0.3581,0.358,0.358,0,0.1628,0.1612,0.1703,0.1799,0.1896,0.1989,0.2124,0.2174,0.2337,0.2468,0.2686,0.2827,0.3178,0.3365,0.3651,0.3757,0.3632,0.3782,0.3757,0.3409,0.3175,0.3098,0.3254,0.3578,0.3578,0.3578,0.3578,0.3578,0.1735,0.1788,0.1849,0.1946,0.2026,0.2101,0.2144,0.2255,0.2366,0.2511,0.2705,0.2861,0.3159,0.3524,0.3628,0.3724,0.3676,0.3653,0.3646,0.3509,0.3368,0.3529,0.3779,0.378,0.3781,0.3782,0.3783,0,0.1867,0.1902,0.201,0.209,0.2147,0.217,0.2257,0.2262,0.2311,0.2462,0.2599,0.2878,0.3113,0.3342,0.3591,0.3581,0.3425,0.3547,0.3277,0.3259,0.3495,0.3373,0.3459,0.3459,0.3459,0.3459,0.3459,0.3459,0.1944,0.2036,0.2057,0.2163,0.2204,0.2217,0.2215,0.2208,0.2261,0.2336,0.244,0.2575,0.2935,0.3359,0.349,0.3445,0.3297,0.3196,0.3246,0.3385,0.3391,0.3397,0.3273,0.3337,0.3337,0.2868,0.2865,0.2863]},{"header":{"parameterUnit":"m.s-1","parameterCategory":2,"la1":30.2991,"la2":30.254,"lo1":-89.0895,"lo2":-89.0444,"dy":0.0017,"dx":0.0017,"nx":28,"ny":28,"refTime":"2023-08-01T21:00:00:Z","depth":"0","parameterNumber":3,"parameterNumberName":"V-component_of_CURRENTS"},"data":[0,0,0,0,0,0,0,0,0,0,0,0,0,0,0,0,0,0,0,0,0,0,0,0,0,0,0,0,0,0,0,0,0,0,0,0,0,0,0,0,0,0,0,0,0,0,0,0,0,0,0,0,0,0,0,0,0,0,0.0589,0.0589,0,0.0578,0.0577,0.0577,0.0583,0.0583,0.0584,0.0585,0.0646,0.0646,0.0647,0,0,0,0,0,0,0,0,0,0,0,0,0,0.0472,0.0474,0.0589,0.0589,0.059,0.0578,0.0577,0.0576,0.0583,0.0583,0.0584,0.0585,0.0645,0.0646,0.0647,0,0,0,0,0,0,0,0,0,0,0,0,0,0.0493,0.0475,0.0589,0.0595,0.0596,0.0578,0.0577,0.0576,0.0582,0.0584,0.0585,0.0586,0.0645,0.0646,0.0648,0.0632,0,0,0.0652,0.0652,0,0,0,0,0,0,0,0,0.0492,0.0497,0.0594,0.0595,0.0596,0.0587,0.0558,0.06,0.0582,0.0582,0.0585,0.0586,0.0635,0.0637,0.0624,0.0635,0.0638,0.0652,0.0653,0.0653,0.0654,0,0,0,0,0,0,0,0.0491,0.0497,0.0579,0.0594,0.0595,0.0549,0.0554,0.0565,0.06,0.0582,0.0584,0.059,0.0636,0.0623,0.0626,0.0639,0.0652,0.0653,0.0654,0.0654,0.0646,0.0645,0,0,0,0,0,0,0.051,0.0496,0.058,0.0579,0.0551,0.0552,0.0557,0.0585,0.0598,0.0602,0.0589,0.0591,0.062,0.0625,0.0629,0.0676,0.0653,0.0654,0.0655,0.0647,0.0646,0.0645,0,0,0,0,0,0,0.0507,0.0518,0.058,0.054,0.0545,0.0554,0.0584,0.0584,0.0571,0.0604,0.0608,0.0577,0.0621,0.0627,0.0662,0.0676,0.0655,0.0656,0.0649,0.0647,0.0646,0.073,0,0,0,0,0,0,0.0504,0.0518,0.0534,0.0542,0.0549,0.0571,0.0583,0.0583,0.0576,0.0577,0.0595,0.0602,0.0623,0.066,0.0664,0.0678,0.0657,0.065,0.0648,0.0646,0.0729,0.0732,0.0735,0,0,0,0,0,0.05,0.0526,0.0535,0.0544,0.0575,0.0571,0.0569,0.0574,0.0574,0.0565,0.0598,0.0601,0.0649,0.0662,0.0666,0.0681,0.0651,0.0648,0.0646,0.0727,0.0731,0.0734,0,0,0,0,0,0,0.0478,0.053,0.054,0.0579,0.0575,0.0575,0.0578,0.0566,0.0577,0.0588,0.061,0.062,0.0647,0.0639,0.0652,0.0662,0.064,0.0639,0.07,0.0704,0.0707,0.0761,0.0658,0,0,0,0,0,0.0483,0.052,0.0541,0.0565,0.0575,0.0568,0.0565,0.0562,0.0577,0.058,0.0599,0.0614,0.0635,0.0654,0.066,0.0681,0.0685,0.0678,0.0681,0.0684,0.0725,0.0721,0.0729,0.0638,0.0638,0.0638,0,0,0.0487,0.0512,0.0537,0.0562,0.0568,0.0599,0.0569,0.0567,0.0597,0.0588,0.0637,0.0626,0.0638,0.0669,0.0677,0.0673,0.0709,0.0681,0.0685,0.0725,0.072,0.073,0.0738,0.0636,0.0636,0.0637,0,0,0.0505,0.0532,0.0571,0.0586,0.0597,0.0599,0.0598,0.0599,0.0607,0.0641,0.0641,0.0648,0.0676,0.0694,0.0707,0.0721,0.0718,0.0694,0.0774,0.0769,0.0778,0.0787,0.0807,0.0817,0.0704,0.0704,0.0704,0,0.0512,0.0572,0.0571,0.0613,0.0649,0.061,0.066,0.0657,0.0665,0.0702,0.0672,0.0718,0.07,0.077,0.0766,0.0735,0.074,0.0772,0.0779,0.0787,0.0795,0.0814,0.0823,0.0708,0.0708,0.0707,0.0707,0,0.0564,0.0621,0.0643,0.0709,0.0726,0.0756,0.0773,0.078,0.0781,0.08,0.0847,0.0819,0.0863,0.0821,0.081,0.0844,0.0833,0.0781,0.0788,0.081,0.0827,0.0836,0.0713,0.0712,0.0711,0.071,0,0,0.0599,0.0675,0.0689,0.0754,0.0791,0.0821,0.087,0.0929,0.1001,0.0974,0.1069,0.1044,0.1024,0.1033,0.0985,0.0962,0.0985,0.0901,0.0898,0.0954,0.1004,0.0955,0.0959,0.0938,0.094,0.0941,0.0999,0,0.0658,0.0761,0.078,0.0898,0.0972,0.098,0.1047,0.1088,0.1115,0.1187,0.1151,0.1208,0.1109,0.1123,0.1091,0.1012,0.1011,0.0977,0.0947,0.0948,0.0927,0.0968,0.0884,0.0925,0.1007,0.1008,0.1009,0,0.0734,0.0796,0.0912,0.1047,0.1082,0.114,0.1267,0.1318,0.1391,0.1416,0.1454,0.143,0.1423,0.1305,0.1241,0.1227,0.1142,0.1061,0.106,0.1002,0.0915,0.091,0.0937,0.0736,0.1022,0.1021,0.102,0,0.0795,0.0916,0.1013,0.1059,0.1176,0.1244,0.1309,0.14,0.1476,0.1564,0.1626,0.1623,0.1615,0.1518,0.1359,0.1309,0.1272,0.1181,0.1074,0.107,0.099,0.0975,0.085,0.1153,0.1153,0.1153,0.1152,0,0.0893,0.0989,0.1056,0.1126,0.1257,0.1328,0.1481,0.1538,0.1652,0.1769,0.1752,0.1822,0.1658,0.1611,0.1456,0.1314,0.1361,0.1125,0.1089,0.1012,0.1,0.0812,0.0707,0.1155,0.1154,0.1154,0.1154,0,0.0982,0.1016,0.114,0.1256,0.1292,0.1396,0.1558,0.1674,0.1771,0.1914,0.1946,0.1974,0.1918,0.1767,0.1606,0.1439,0.1193,0.1237,0.1174,0.1128,0.0807,0.071,0.0674,0.0602,0.1137,0.1137,0.1136,0,0.1053,0.111,0.121,0.1264,0.1324,0.1469,0.1566,0.1702,0.183,0.2009,0.2085,0.2092,0.2111,0.1897,0.1607,0.1384,0.1201,0.1138,0.1008,0.0813,0.0678,0.0676,0.0617,0.0938,0.0936,0.0934,0.0933,0,0.1171,0.1175,0.1256,0.1353,0.1451,0.158,0.1744,0.1844,0.2017,0.2131,0.2287,0.2322,0.2147,0.1891,0.1576,0.1371,0.0991,0.1092,0.0898,0.0536,0.0521,0.0425,0.0897,0.0917,0.0918,0.0919,0.092,0.0921,0.1254,0.1302,0.137,0.1466,0.1556,0.1696,0.1822,0.1962,0.2133,0.2302,0.2397,0.2437,0.2117,0.1678,0.1393,0.0805,0.0892,0.059,0.0503,0.0534,0.0414,0.0871,0.0831,0.0832,0.0833,0.0834,0.0835,0,0.1385,0.1407,0.1487,0.1608,0.1709,0.1744,0.1941,0.2057,0.2206,0.2309,0.244,0.2328,0.187,0.1404,0.0691,0.0284,0.0181,0.0068,0.0006,-0.0018,0.0376,0.0308,0.0143,0.0143,0.0143,0.0143,0.0143,0.0144,0.1461,0.1547,0.1559,0.1719,0.1789,0.194,0.2038,0.2152,0.2254,0.2339,0.234,0.2394,0.2058,0.0875,0.0001,-0.0219,-0.0461,-0.0501,-0.0551,-0.0375,-0.0334,-0.0295,-0.0385,-0.0692,-0.0694,-0.0911,-0.0914,-0.0917]}],[{"header":{"parameterUnit":"m.s-1","parameterCategory":2,"la1":30.2991,"la2":30.254,"lo1":-89.0895,"lo2":-89.0444,"dy":0.0017,"dx":0.0017,"nx":28,"ny":28,"refTime":"2023-08-01T21:00:00:Z","depth":"2","parameterNumber":2,"parameterNumberName":"U-component_of_CURRENTS"},"data":[0,0,0,0,0,0,0,0,0,0,0,0,0,0,0,0,0,0,0,0,0,0,0,0,0,0,0,0,0,0,0,0,0,0,0,0,0,0,0,0,0,0,0,0,0,0,0,0,0,0,0,0,0,0,0,0,0,0,-0.025,-0.0251,0,-0.0255,-0.0255,-0.0255,-0.0311,-0.0313,-0.0314,-0.0316,-0.0406,-0.0407,-0.0408,0,0,0,0,0,0,0,0,0,0,0,0,0,-0.0143,-0.0146,-0.025,-0.0251,-0.0251,-0.0255,-0.0255,-0.0255,-0.0311,-0.0313,-0.0315,-0.0317,-0.0405,-0.0407,-0.0408,0,0,0,0,0,0,0,0,0,0,0,0,0,-0.0172,-0.0146,-0.025,-0.028,-0.0283,-0.0255,-0.0255,-0.0255,-0.0311,-0.0313,-0.0315,-0.0317,-0.0405,-0.0406,-0.0408,-0.0371,0,0,-0.0412,-0.0413,0,0,0,0,0,0,0,0,-0.0171,-0.0176,-0.0276,-0.0278,-0.0281,-0.0286,-0.025,-0.0299,-0.031,-0.0299,-0.0316,-0.0319,-0.0373,-0.0377,-0.037,-0.0375,-0.0379,-0.0412,-0.0413,-0.0414,-0.0414,0,0,0,0,0,0,0,-0.0169,-0.0175,-0.0251,-0.0276,-0.0279,-0.0243,-0.0251,-0.0258,-0.0324,-0.03,-0.0304,-0.0306,-0.0375,-0.0368,-0.0373,-0.0381,-0.0412,-0.0414,-0.0415,-0.0415,-0.04,-0.0399,0,0,0,0,0,0,-0.0176,-0.0174,-0.0251,-0.0251,-0.0232,-0.0244,-0.0252,-0.0281,-0.0322,-0.033,-0.0304,-0.0309,-0.0365,-0.0371,-0.0376,-0.0351,-0.0414,-0.0415,-0.0416,-0.0401,-0.04,-0.0398,0,0,0,0,0,0,-0.0174,-0.0184,-0.0251,-0.0212,-0.0218,-0.0244,-0.0275,-0.028,-0.0289,-0.0324,-0.0334,-0.031,-0.0367,-0.0374,-0.04,-0.0355,-0.0416,-0.0417,-0.0403,-0.0401,-0.0399,-0.0292,0,0,0,0,0,0,-0.0172,-0.0184,-0.0212,-0.0214,-0.0221,-0.0243,-0.0273,-0.0279,-0.0286,-0.0292,-0.0332,-0.0342,-0.0369,-0.0398,-0.0402,-0.0358,-0.0418,-0.0405,-0.0402,-0.04,-0.0297,-0.0286,-0.0277,0,0,0,0,0,-0.0168,-0.0195,-0.0214,-0.0223,-0.0258,-0.0243,-0.0243,-0.0266,-0.0284,-0.0283,-0.0317,-0.0341,-0.0385,-0.0398,-0.0403,-0.0359,-0.0406,-0.0403,-0.04,-0.0301,-0.0288,-0.0277,0,0,0,0,0,0,-0.0157,-0.0204,-0.0224,-0.0265,-0.0258,-0.0253,-0.0256,-0.0263,-0.0282,-0.0297,-0.0333,-0.0344,-0.0344,-0.0372,-0.0385,-0.0349,-0.0395,-0.0393,-0.0318,-0.0306,-0.0297,-0.0252,-0.042,0,0,0,0,0,-0.0168,-0.0209,-0.0221,-0.025,-0.0248,-0.0249,-0.0248,-0.0257,-0.027,-0.0281,-0.0303,-0.0325,-0.0328,-0.0339,-0.0352,-0.0336,-0.0346,-0.031,-0.03,-0.0291,-0.0259,-0.0256,-0.0242,-0.0389,-0.0389,-0.0389,0,0,-0.0184,-0.0199,-0.0234,-0.025,-0.0248,-0.0233,-0.0255,-0.0249,-0.0236,-0.0287,-0.0284,-0.0295,-0.0319,-0.0301,-0.0302,-0.0323,-0.0253,-0.0287,-0.028,-0.0252,-0.0251,-0.0237,-0.0224,-0.0387,-0.0387,-0.0388,0,0,-0.0177,-0.0232,-0.0244,-0.0239,-0.0231,-0.0226,-0.0224,-0.0217,-0.0221,-0.0216,-0.0237,-0.0222,-0.0247,-0.0231,-0.0232,-0.0175,-0.0204,-0.0183,-0.0092,-0.009,-0.0077,-0.0067,-0.0052,-0.0041,-0.0175,-0.0175,-0.0175,0,-0.0197,-0.0206,-0.0237,-0.0217,-0.0211,-0.0221,-0.0199,-0.0194,-0.0195,-0.0176,-0.0214,-0.0185,-0.0203,-0.0148,-0.0116,-0.0147,-0.0153,-0.0134,-0.0075,-0.0065,-0.0055,-0.0043,-0.0032,-0.0169,-0.017,-0.0171,-0.0171,0,-0.0167,-0.0185,-0.0179,-0.0175,-0.0165,-0.0152,-0.0144,-0.0129,-0.0134,-0.0117,-0.0077,-0.0088,-0.0064,-0.0056,-0.0064,0.0015,-0.0012,-0.0065,-0.01,-0.0033,-0.0026,-0.0016,-0.0162,-0.0164,-0.0165,-0.0167,0,0,-0.0201,-0.0176,-0.0175,-0.0158,-0.0146,-0.0128,-0.0099,-0.0059,-0.0024,-0.0017,0.004,0.0072,0.0086,0.009,0.009,0.0116,0.019,0.0075,0.0072,0.01,0.021,0.0273,0.0289,0.0141,0.0143,0.0145,0.0191,0,-0.0171,-0.0127,-0.0122,-0.0084,-0.0064,-0.0061,-0.003,0.0006,0.0027,0.0077,0.0104,0.0159,0.0131,0.0173,0.019,0.0187,0.022,0.0184,0.0133,0.0133,0.0189,0.0304,0.027,0.0316,0.02,0.0202,0.0203,0,-0.014,-0.0111,-0.0066,-0.0033,-0.0023,0.0006,0.0065,0.0091,0.0158,0.0182,0.0242,0.0264,0.0346,0.0295,0.0326,0.03,0.0287,0.0273,0.0271,0.0308,0.0216,0.0228,0.0337,0.0219,0.0217,0.0216,0.0215,0,-0.0116,-0.008,-0.0038,-0.0029,0.0015,0.0051,0.0078,0.0137,0.0177,0.0281,0.0352,0.0387,0.049,0.042,0.0425,0.0376,0.0443,0.0346,0.0391,0.0393,0.0348,0.0344,0.0383,0.0383,0.0383,0.0383,0.0383,0,-0.0092,-0.0057,-0.002,0.0008,0.0092,0.0083,0.016,0.0223,0.0269,0.0337,0.0424,0.0492,0.0542,0.0581,0.0471,0.0493,0.0471,0.046,0.0431,0.0385,0.0385,0.0274,0.0261,0.0384,0.0384,0.0384,0.0383,0,-0.0062,-0.0046,0.0034,0.0089,0.0118,0.0187,0.0238,0.0265,0.0343,0.0441,0.05,0.0651,0.0734,0.0744,0.0721,0.065,0.0575,0.0585,0.0558,0.0528,0.0502,0.0493,0.0625,0.0628,0.0631,0.0633,0.0635,0,-0.0046,-0.0015,0.0115,0.0173,0.0213,0.0275,0.0301,0.0336,0.0372,0.0485,0.055,0.0742,0.0807,0.0855,0.0839,0.0758,0.0697,0.0694,0.061,0.0581,0.0537,0.0524,0.0512,0.0575,0.0576,0.0577,0.0578,0,-0.0019,0.0042,0.0104,0.0217,0.0285,0.0345,0.0393,0.0434,0.0452,0.0542,0.0612,0.0655,0.0846,0.0873,0.094,0.0804,0.0693,0.0716,0.0698,0.0537,0.0542,0.0496,0.0484,0.0587,0.0586,0.0585,0.0585,0.0584,-0.0003,0.0058,0.0113,0.0218,0.0302,0.0353,0.0391,0.0426,0.0467,0.0573,0.0598,0.0699,0.0801,0.092,0.0854,0.0847,0.0827,0.0725,0.0717,0.0709,0.0714,0.0726,0.0805,0.0806,0.0806,0.0806,0.0806,0,-0.0039,-0.0008,0.0077,0.0179,0.0229,0.0304,0.0382,0.0385,0.0434,0.059,0.0647,0.0665,0.076,0.0837,0.088,0.0854,0.076,0.0779,0.0677,0.067,0.0662,0.0659,0.0739,0.0739,0.0739,0.0739,0,0,-0.007,-0.0046,-0.0019,0.0027,0.0115,0.0166,0.0222,0.03,0.0421,0.0515,0.0639,0.0759,0.0841,0.0843,0.0816,0.0823,0.0719,0.0758,0.081,0.0684,0.0677,0.0628,0.0617,0,0,0,0,0]},{"header":{"parameterUnit":"m.s-1","parameterCategory":2,"la1":30.2991,"la2":30.254,"lo1":-89.0895,"lo2":-89.0444,"dy":0.0017,"dx":0.0017,"nx":28,"ny":28,"refTime":"2023-08-01T21:00:00:Z","depth":"2","parameterNumber":3,"parameterNumberName":"V-component_of_CURRENTS"},"data":[0,0,0,0,0,0,0,0,0,0,0,0,0,0,0,0,0,0,0,0,0,0,0,0,0,0,0,0,0,0,0,0,0,0,0,0,0,0,0,0,0,0,0,0,0,0,0,0,0,0,0,0,0,0,0,0,0,0,-0.0921,-0.092,0,-0.0856,-0.0855,-0.0854,-0.0798,-0.0798,-0.0797,-0.0797,-0.0722,-0.072,-0.0718,0,0,0,0,0,0,0,0,0,0,0,0,0,-0.0675,-0.0681,-0.0921,-0.092,-0.092,-0.0856,-0.0855,-0.0854,-0.0798,-0.0798,-0.0797,-0.0797,-0.0722,-0.072,-0.0718,0,0,0,0,0,0,0,0,0,0,0,0,0,-0.0711,-0.0683,-0.0921,-0.0886,-0.0882,-0.0856,-0.0855,-0.0853,-0.0798,-0.0798,-0.0797,-0.0797,-0.0723,-0.072,-0.0718,-0.0715,0,0,-0.071,-0.0709,0,0,0,0,0,0,0,0,-0.071,-0.072,-0.0892,-0.0888,-0.0884,-0.0836,-0.074,-0.0807,-0.0799,-0.0828,-0.0797,-0.0796,-0.0761,-0.0755,-0.0741,-0.0712,-0.0708,-0.071,-0.0709,-0.0708,-0.0707,0,0,0,0,0,0,0,-0.0708,-0.0721,-0.0893,-0.0891,-0.0887,-0.0763,-0.077,-0.0751,-0.0797,-0.0825,-0.0822,-0.0818,-0.0758,-0.0744,-0.0739,-0.0707,-0.071,-0.0708,-0.0707,-0.0706,-0.0603,-0.0601,0,0,0,0,0,0,-0.074,-0.0722,-0.0895,-0.0891,-0.0796,-0.077,-0.0777,-0.0851,-0.0797,-0.0789,-0.0819,-0.0816,-0.0748,-0.0742,-0.0736,-0.0677,-0.0708,-0.0705,-0.0704,-0.0604,-0.0602,-0.0601,0,0,0,0,0,0,-0.0736,-0.0759,-0.0898,-0.08,-0.081,-0.0777,-0.0858,-0.085,-0.0826,-0.0793,-0.0784,-0.0802,-0.0748,-0.074,-0.0715,-0.0676,-0.0704,-0.0702,-0.0605,-0.0603,-0.0602,-0.0592,0,0,0,0,0,0,-0.0731,-0.076,-0.0816,-0.0806,-0.0817,-0.0873,-0.0858,-0.0849,-0.0826,-0.0821,-0.0776,-0.0769,-0.0746,-0.0719,-0.0713,-0.0673,-0.07,-0.0607,-0.0605,-0.0602,-0.0594,-0.059,-0.0587,0,0,0,0,0,-0.0723,-0.0791,-0.0822,-0.0841,-0.0902,-0.0873,-0.0866,-0.0834,-0.0826,-0.0811,-0.0789,-0.077,-0.0698,-0.0717,-0.071,-0.0668,-0.0608,-0.0605,-0.0602,-0.0596,-0.0591,-0.0587,0,0,0,0,0,0,-0.069,-0.0793,-0.0825,-0.092,-0.0899,-0.0865,-0.0849,-0.0834,-0.0803,-0.0799,-0.077,-0.0761,-0.0719,-0.0701,-0.0723,-0.0629,-0.0643,-0.0638,-0.064,-0.0635,-0.0632,-0.0645,-0.0698,0,0,0,0,0,-0.0724,-0.0824,-0.0847,-0.0916,-0.0911,-0.0883,-0.0868,-0.0848,-0.0821,-0.0806,-0.0782,-0.0746,-0.0702,-0.0678,-0.0649,-0.061,-0.0638,-0.0572,-0.0568,-0.0565,-0.057,-0.0594,-0.0594,-0.0592,-0.0592,-0.0592,0,0,-0.0752,-0.0797,-0.0869,-0.0917,-0.0901,-0.0886,-0.0871,-0.0846,-0.082,-0.0805,-0.077,-0.0742,-0.0693,-0.0644,-0.062,-0.0622,-0.0583,-0.0562,-0.056,-0.0566,-0.0591,-0.0592,-0.0592,-0.059,-0.059,-0.059,0,0,-0.0768,-0.0871,-0.0924,-0.0916,-0.0897,-0.088,-0.0876,-0.0848,-0.082,-0.0792,-0.0762,-0.0722,-0.067,-0.0622,-0.0589,-0.055,-0.057,-0.0524,-0.0508,-0.0531,-0.0532,-0.0533,-0.0589,-0.0596,-0.0514,-0.0514,-0.0514,0,-0.0792,-0.0862,-0.0914,-0.0906,-0.0895,-0.0881,-0.0864,-0.0837,-0.0802,-0.0775,-0.0779,-0.0693,-0.0655,-0.0578,-0.0554,-0.054,-0.0576,-0.053,-0.0529,-0.0531,-0.0533,-0.059,-0.0597,-0.0513,-0.0513,-0.0513,-0.0513,0,-0.0801,-0.0857,-0.086,-0.0891,-0.0876,-0.0859,-0.0834,-0.0809,-0.0786,-0.0759,-0.0698,-0.0661,-0.0609,-0.0573,-0.0548,-0.0511,-0.0543,-0.0533,-0.0549,-0.0533,-0.0594,-0.0602,-0.0512,-0.0512,-0.0512,-0.0512,0,0,-0.0878,-0.0886,-0.0886,-0.0876,-0.0867,-0.0844,-0.0811,-0.0764,-0.0734,-0.0703,-0.0659,-0.0581,-0.0576,-0.0539,-0.0502,-0.0504,-0.0543,-0.052,-0.0522,-0.0592,-0.063,-0.0641,-0.0651,-0.0542,-0.0543,-0.0544,-0.0676,0,-0.0864,-0.0841,-0.0857,-0.0833,-0.0815,-0.0805,-0.077,-0.0728,-0.0702,-0.0665,-0.0612,-0.0562,-0.0556,-0.0523,-0.0531,-0.0537,-0.0561,-0.0511,-0.0621,-0.0625,-0.0649,-0.0658,-0.0559,-0.0667,-0.0684,-0.0686,-0.0686,0,-0.0861,-0.0835,-0.0804,-0.0785,-0.0777,-0.0752,-0.0697,-0.0679,-0.0629,-0.0604,-0.0574,-0.0554,-0.0527,-0.053,-0.0583,-0.0558,-0.0597,-0.0616,-0.0621,-0.064,-0.0649,-0.0679,-0.0681,-0.07,-0.0699,-0.0698,-0.0697,0,-0.0827,-0.0814,-0.0778,-0.0772,-0.0737,-0.0698,-0.068,-0.0638,-0.0617,-0.0571,-0.0536,-0.0545,-0.0488,-0.0586,-0.063,-0.0614,-0.0716,-0.07,-0.0755,-0.0758,-0.0698,-0.0694,-0.0751,-0.0751,-0.075,-0.075,-0.075,0,-0.0816,-0.0795,-0.0747,-0.0718,-0.0637,-0.0657,-0.0602,-0.0564,-0.0561,-0.0527,-0.0503,-0.0479,-0.0491,-0.0543,-0.0654,-0.0746,-0.0749,-0.0768,-0.0788,-0.0692,-0.0686,-0.0723,-0.0718,-0.0755,-0.0754,-0.0753,-0.0752,0,-0.0807,-0.0785,-0.0708,-0.0637,-0.0611,-0.0546,-0.0531,-0.0518,-0.05,-0.046,-0.0437,-0.0405,-0.0469,-0.0543,-0.0654,-0.0712,-0.085,-0.0877,-0.078,-0.0785,-0.0879,-0.0872,-0.0968,-0.097,-0.0971,-0.0972,-0.0973,0,-0.0808,-0.0773,-0.0626,-0.0563,-0.0521,-0.0465,-0.0436,-0.0444,-0.0438,-0.0439,-0.0401,-0.0411,-0.0422,-0.0601,-0.0702,-0.0894,-0.0902,-0.0889,-0.0822,-0.089,-0.09,-0.0891,-0.0882,-0.0754,-0.0753,-0.0752,-0.0751,0,-0.0788,-0.0716,-0.0636,-0.0498,-0.0415,-0.0389,-0.0351,-0.0313,-0.0344,-0.0311,-0.0322,-0.0358,-0.0444,-0.0541,-0.0711,-0.0832,-0.0863,-0.0878,-0.0972,-0.0707,-0.0696,-0.0703,-0.07,-0.0744,-0.0744,-0.0745,-0.0745,-0.0746,-0.0753,-0.0668,-0.0555,-0.0444,-0.0376,-0.034,-0.0295,-0.0253,-0.0229,-0.017,-0.0263,-0.0258,-0.0365,-0.0534,-0.0705,-0.0809,-0.0843,-0.0842,-0.0841,-0.0842,-0.0786,-0.0776,-0.0832,-0.0833,-0.0834,-0.0835,-0.0836,0,-0.071,-0.0648,-0.0548,-0.042,-0.0399,-0.0356,-0.0288,-0.0259,-0.0171,-0.0073,-0.0092,-0.0199,-0.03,-0.0449,-0.0574,-0.0708,-0.0682,-0.0738,-0.0654,-0.0661,-0.0667,-0.0599,-0.0598,-0.0598,-0.0597,-0.0597,0,0,-0.067,-0.058,-0.0543,-0.0498,-0.0445,-0.0405,-0.0344,-0.0229,-0.0129,-0.0015,0.0046,-0.0019,-0.0206,-0.0256,-0.0428,-0.0488,-0.0537,-0.0498,-0.067,-0.0553,-0.0557,-0.0708,-0.0609,0,0,0,0,0]}],[{"header":{"parameterUnit":"m.s-1","parameterCategory":2,"la1":30.2991,"la2":30.254,"lo1":-89.0895,"lo2":-89.0444,"dy":0.0017,"dx":0.0017,"nx":28,"ny":28,"refTime":"2023-08-01T21:00:00:Z","depth":"4","parameterNumber":2,"parameterNumberName":"U-component_of_CURRENTS"},"data":[0,0,0,0,0,0,0,0,0,0,0,0,0,0,0,0,0,0,0,0,0,0,0,0,0,0,0,0,0,0,0,0,0,0,0,0,0,0,0,0,0,0,0,0,0,0,0,0,0,0,0,0,0,0,0,0,0,0,-0.0056,-0.0056,0,-0.0067,-0.0067,-0.0067,-0.0061,-0.006,-0.006,-0.006,-0.0061,-0.0061,-0.0062,0,0,0,0,0,0,0,0,0,0,0,0,0,-0.003,-0.003,-0.0056,-0.0056,-0.0056,-0.0067,-0.0067,-0.0067,-0.0061,-0.006,-0.006,-0.006,-0.0061,-0.0061,-0.0062,0,0,0,0,0,0,0,0,0,0,0,0,0,-0.0041,-0.0031,-0.0056,-0.0054,-0.0054,-0.0067,-0.0067,-0.0067,-0.0061,-0.006,-0.006,-0.0059,-0.0061,-0.0061,-0.0062,-0.0075,0,0,-0.0063,-0.0063,0,0,0,0,0,0,0,0,-0.0041,-0.0042,-0.0054,-0.0054,-0.0054,-0.0062,-0.0058,-0.0069,-0.0061,-0.0059,-0.006,-0.0059,-0.006,-0.0061,-0.0065,-0.0075,-0.0075,-0.0063,-0.0064,-0.0064,-0.0064,0,0,0,0,0,0,0,-0.004,-0.0042,-0.0061,-0.0054,-0.0054,-0.0053,-0.0054,-0.006,-0.0062,-0.0059,-0.0058,-0.0059,-0.006,-0.0064,-0.0065,-0.0075,-0.0063,-0.0064,-0.0064,-0.0064,-0.0091,-0.0091,0,0,0,0,0,0,-0.0039,-0.0041,-0.006,-0.0061,-0.0046,-0.0053,-0.0055,-0.006,-0.0062,-0.0062,-0.0059,-0.0059,-0.0064,-0.0064,-0.0065,-0.0071,-0.0064,-0.0064,-0.0065,-0.0091,-0.0091,-0.0092,0,0,0,0,0,0,-0.0038,-0.004,-0.006,-0.0051,-0.0053,-0.0054,-0.006,-0.006,-0.0067,-0.0063,-0.0063,-0.0066,-0.0063,-0.0064,-0.0076,-0.0071,-0.0064,-0.0065,-0.009,-0.0091,-0.0091,-0.009,0,0,0,0,0,0,-0.0037,-0.004,-0.0046,-0.0051,-0.0053,-0.007,-0.0061,-0.0061,-0.0067,-0.0067,-0.0068,-0.0068,-0.0063,-0.0076,-0.0077,-0.0072,-0.0065,-0.009,-0.009,-0.0091,-0.0089,-0.009,-0.0091,0,0,0,0,0,-0.0037,-0.0047,-0.0047,-0.0049,-0.0061,-0.007,-0.0072,-0.0071,-0.0068,-0.0074,-0.0077,-0.0068,-0.0081,-0.0077,-0.0078,-0.0073,-0.0089,-0.009,-0.0091,-0.0089,-0.009,-0.0091,0,0,0,0,0,0,-0.0041,-0.0047,-0.0047,-0.0059,-0.0065,-0.0069,-0.0075,-0.0076,-0.0083,-0.0082,-0.0079,-0.0079,-0.0084,-0.0086,-0.0081,-0.0084,-0.0081,-0.0083,-0.0079,-0.008,-0.0081,-0.0056,-0.0066,0,0,0,0,0,-0.0044,-0.0055,-0.0058,-0.007,-0.0071,-0.0075,-0.0079,-0.0079,-0.0084,-0.0087,-0.0089,-0.009,-0.0089,-0.0091,-0.0092,-0.0101,-0.0088,-0.0098,-0.0099,-0.0099,-0.0081,-0.0075,-0.0073,-0.0095,-0.0095,-0.0095,0,0,-0.0051,-0.0056,-0.0062,-0.0072,-0.0075,-0.0079,-0.0076,-0.0084,-0.0084,-0.0086,-0.0093,-0.0095,-0.0093,-0.0096,-0.0098,-0.0097,-0.0087,-0.0101,-0.0101,-0.0081,-0.0076,-0.0073,-0.0071,-0.0095,-0.0095,-0.0095,0,0,-0.0066,-0.0072,-0.0082,-0.0084,-0.0088,-0.0088,-0.0092,-0.0097,-0.0095,-0.0105,-0.01,-0.0101,-0.0111,-0.0101,-0.0098,-0.0107,-0.0091,-0.0111,-0.0095,-0.009,-0.0088,-0.0086,-0.0064,-0.0059,-0.0113,-0.0113,-0.0113,0,-0.0077,-0.0081,-0.0087,-0.0091,-0.0088,-0.0092,-0.0092,-0.0096,-0.0106,-0.0097,-0.0107,-0.0104,-0.0107,-0.0093,-0.0093,-0.0106,-0.0096,-0.009,-0.009,-0.0087,-0.0085,-0.0063,-0.0058,-0.0113,-0.0113,-0.0113,-0.0113,0,-0.009,-0.0092,-0.0097,-0.0101,-0.0102,-0.0104,-0.0102,-0.0104,-0.0103,-0.0098,-0.009,-0.0099,-0.009,-0.0096,-0.0095,-0.0078,-0.0074,-0.0091,-0.0083,-0.0082,-0.006,-0.0055,-0.0113,-0.0113,-0.0113,-0.0113,0,0,-0.0118,-0.0108,-0.011,-0.0099,-0.01,-0.01,-0.0098,-0.0086,-0.0076,-0.0084,-0.0065,-0.0066,-0.0063,-0.0058,-0.0063,-0.0058,-0.0037,-0.0064,-0.0064,-0.0033,-0.0011,0.0031,0.004,-0.0056,-0.0056,-0.0055,-0.0,0,-0.0125,-0.012,-0.0117,-0.0109,-0.0099,-0.0092,-0.009,-0.0079,-0.0073,-0.0061,-0.0052,-0.0045,-0.0052,-0.0051,-0.0044,-0.004,-0.0024,-0.0048,-0.0022,-0.002,0.0023,0.0047,-0.0053,0.0004,0.0005,0.0006,0.0006,0,-0.0135,-0.0125,-0.0117,-0.0089,-0.0085,-0.0086,-0.0062,-0.006,-0.004,-0.0031,-0.0016,-0.0016,0.0003,-0.0016,0.001,-0.0006,0.0003,0.0004,0.0005,0.0053,0.0031,0.0001,0.0015,0.0015,0.0014,0.0013,0.0013,0,-0.0135,-0.012,-0.0108,-0.0102,-0.0085,-0.0074,-0.0063,-0.0047,-0.0037,-0.0011,0.0001,0.0017,0.002,0.0034,0.0044,0.0025,0.0075,0.0042,0.0094,0.0097,0.0042,0.0039,0.0072,0.0072,0.0072,0.0072,0.0071,0,-0.0133,-0.0124,-0.0106,-0.0099,-0.0081,-0.0067,-0.0055,-0.0035,-0.0016,0.0002,0.0017,0.0034,0.0031,0.0053,0.0064,0.011,0.0092,0.0121,0.012,0.004,0.0036,0.0046,0.0042,0.0074,0.0073,0.0073,0.0072,0,-0.0139,-0.013,-0.0118,-0.0095,-0.0083,-0.0074,-0.005,-0.0042,-0.0015,0.0009,0.0018,0.0047,0.0088,0.0104,0.0126,0.0137,0.017,0.0189,0.013,0.0121,0.0185,0.018,0.0255,0.0257,0.0259,0.0261,0.0262,0,-0.0139,-0.0135,-0.0119,-0.0114,-0.0104,-0.0086,-0.0077,-0.0047,-0.0039,0.002,0.003,0.0083,0.0105,0.0187,0.0194,0.0244,0.0239,0.0256,0.0206,0.0216,0.0206,0.0199,0.0192,0.0265,0.0265,0.0266,0.0266,0,-0.0139,-0.0146,-0.0139,-0.0131,-0.0122,-0.0102,-0.0081,-0.0067,-0.0033,-0.0013,0.0061,0.0116,0.0174,0.0211,0.0259,0.0283,0.0242,0.0273,0.0269,0.0222,0.0227,0.0215,0.0206,0.0272,0.0271,0.0271,0.027,0,-0.0151,-0.0156,-0.0157,-0.0146,-0.0134,-0.0106,-0.0092,-0.0058,-0.0034,0.0032,0.0053,0.0135,0.0163,0.0234,0.0275,0.0315,0.0307,0.0293,0.0287,0.028,0.0266,0.0275,0.0354,0,0,0,0,0,-0.0154,-0.0161,-0.0161,-0.0147,-0.0135,-0.0116,-0.0091,-0.0081,-0.0048,0.0008,0.0038,0.0103,0.0202,0.0238,0.0287,0.0286,0.0298,0.0342,0.0273,0.0305,0.0298,0.0281,0,0,0,0,0,0,-0.0162,-0.0168,-0.0167,-0.0146,-0.0128,-0.0106,-0.0082,-0.0057,-0.0027,0.0014,0.0064,0.0106,0.019,0.0177,0.0286,0.0299,0.026,0.0387,0.0387,0.0309,0.0303,0.0297,0.0277,0,0,0,0,0]},{"header":{"parameterUnit":"m.s-1","parameterCategory":2,"la1":30.2991,"la2":30.254,"lo1":-89.0895,"lo2":-89.0444,"dy":0.0017,"dx":0.0017,"nx":28,"ny":28,"refTime":"2023-08-01T21:00:00:Z","depth":"4","parameterNumber":3,"parameterNumberName":"V-component_of_CURRENTS"},"data":[0,0,0,0,0,0,0,0,0,0,0,0,0,0,0,0,0,0,0,0,0,0,0,0,0,0,0,0,0,0,0,0,0,0,0,0,0,0,0,0,0,0,0,0,0,0,0,0,0,0,0,0,0,0,0,0,0,0,-0.0374,-0.0374,0,-0.0344,-0.0344,-0.0343,-0.037,-0.0371,-0.0372,-0.0373,-0.0389,-0.0388,-0.0388,0,0,0,0,0,0,0,0,0,0,0,0,0,-0.0421,-0.042,-0.0374,-0.0374,-0.0373,-0.0344,-0.0344,-0.0343,-0.037,-0.0371,-0.0373,-0.0374,-0.0389,-0.0389,-0.0388,0,0,0,0,0,0,0,0,0,0,0,0,0,-0.0396,-0.042,-0.0374,-0.0383,-0.0384,-0.0344,-0.0344,-0.0343,-0.037,-0.0371,-0.0373,-0.0375,-0.039,-0.0389,-0.0388,-0.0348,0,0,-0.0385,-0.0384,0,0,0,0,0,0,0,0,-0.0398,-0.0395,-0.0382,-0.0383,-0.0383,-0.0363,-0.0366,-0.0347,-0.0369,-0.0374,-0.0373,-0.0375,-0.0384,-0.0383,-0.0372,-0.0348,-0.0349,-0.0385,-0.0384,-0.0384,-0.0383,0,0,0,0,0,0,0,-0.0399,-0.0396,-0.0362,-0.0382,-0.0382,-0.0378,-0.0377,-0.0362,-0.037,-0.0374,-0.0376,-0.0373,-0.0384,-0.0373,-0.0373,-0.0349,-0.0385,-0.0384,-0.0383,-0.0383,-0.0387,-0.0388,0,0,0,0,0,0,-0.0404,-0.0397,-0.0363,-0.0361,-0.0395,-0.0376,-0.0374,-0.0367,-0.037,-0.0371,-0.0372,-0.0374,-0.0374,-0.0374,-0.0374,-0.0413,-0.0384,-0.0383,-0.0382,-0.0386,-0.0387,-0.0388,0,0,0,0,0,0,-0.0405,-0.0401,-0.0364,-0.0379,-0.0374,-0.0374,-0.0365,-0.0366,-0.0366,-0.0367,-0.037,-0.0374,-0.0375,-0.0375,-0.0379,-0.0411,-0.0382,-0.0381,-0.0385,-0.0386,-0.0387,-0.0437,0,0,0,0,0,0,-0.0406,-0.0401,-0.04,-0.0379,-0.0374,-0.0344,-0.0364,-0.0364,-0.0362,-0.0365,-0.0369,-0.0372,-0.0377,-0.038,-0.0378,-0.041,-0.0381,-0.0385,-0.0386,-0.0387,-0.0435,-0.044,-0.0444,0,0,0,0,0,-0.0408,-0.0396,-0.04,-0.0396,-0.0371,-0.0344,-0.034,-0.0345,-0.036,-0.0354,-0.0368,-0.0372,-0.0388,-0.0379,-0.0376,-0.0409,-0.0384,-0.0386,-0.0387,-0.0433,-0.0439,-0.0444,0,0,0,0,0,0,-0.0417,-0.0396,-0.0401,-0.0384,-0.0369,-0.0349,-0.0344,-0.0344,-0.0346,-0.0357,-0.0366,-0.0368,-0.0392,-0.0381,-0.0372,-0.0414,-0.0392,-0.0393,-0.0428,-0.0433,-0.0438,-0.0455,-0.038,0,0,0,0,0,-0.0417,-0.0403,-0.0385,-0.0372,-0.0367,-0.0356,-0.0348,-0.0347,-0.0343,-0.0346,-0.0354,-0.0368,-0.039,-0.0397,-0.0403,-0.0407,-0.04,-0.0431,-0.0435,-0.044,-0.0452,-0.0468,-0.0475,-0.0393,-0.0393,-0.0393,0,0,-0.0417,-0.0404,-0.0397,-0.0373,-0.0365,-0.036,-0.0356,-0.034,-0.0354,-0.0346,-0.037,-0.0379,-0.0394,-0.0418,-0.0428,-0.0417,-0.0454,-0.0441,-0.0445,-0.0455,-0.047,-0.0478,-0.0486,-0.0394,-0.0394,-0.0394,0,0,-0.0408,-0.04,-0.0388,-0.0377,-0.0362,-0.0358,-0.0356,-0.0341,-0.0356,-0.0362,-0.0383,-0.0408,-0.0415,-0.0446,-0.0463,-0.0489,-0.048,-0.0494,-0.0532,-0.0548,-0.0555,-0.0561,-0.0543,-0.0547,-0.0496,-0.0497,-0.0497,0,-0.0414,-0.04,-0.038,-0.0371,-0.0377,-0.0363,-0.0367,-0.0369,-0.0362,-0.0384,-0.0379,-0.0426,-0.0437,-0.0492,-0.0517,-0.0504,-0.0497,-0.0512,-0.0555,-0.0561,-0.0567,-0.0547,-0.0551,-0.0499,-0.0499,-0.0499,-0.0498,0,-0.0398,-0.0396,-0.0389,-0.0385,-0.0384,-0.0378,-0.0386,-0.0396,-0.0413,-0.0423,-0.0468,-0.0477,-0.051,-0.0524,-0.0535,-0.0591,-0.0566,-0.056,-0.0543,-0.0579,-0.0554,-0.0557,-0.0503,-0.0502,-0.0501,-0.05,0,0,-0.0406,-0.0384,-0.0388,-0.0396,-0.0397,-0.0393,-0.0427,-0.0455,-0.0484,-0.0491,-0.0532,-0.0584,-0.0584,-0.0603,-0.0613,-0.0636,-0.0669,-0.0623,-0.0623,-0.0608,-0.0682,-0.0606,-0.0602,-0.0674,-0.0675,-0.0676,-0.0642,0,-0.0414,-0.0404,-0.0399,-0.0416,-0.0421,-0.0436,-0.0466,-0.049,-0.0517,-0.0544,-0.0575,-0.0604,-0.0615,-0.0628,-0.066,-0.0666,-0.0684,-0.0678,-0.0647,-0.0646,-0.0578,-0.0606,-0.0681,-0.0644,-0.0645,-0.0645,-0.0646,0,-0.0418,-0.0412,-0.0427,-0.0443,-0.0449,-0.0464,-0.0523,-0.0542,-0.0585,-0.0601,-0.0639,-0.0643,-0.0688,-0.0679,-0.0716,-0.0711,-0.0711,-0.0709,-0.0707,-0.0626,-0.0578,-0.0605,-0.0652,-0.0651,-0.0651,-0.065,-0.065,0,-0.0446,-0.0443,-0.0462,-0.0467,-0.0477,-0.0509,-0.0525,-0.0569,-0.0586,-0.0634,-0.0636,-0.0685,-0.0691,-0.0715,-0.0718,-0.072,-0.0735,-0.0727,-0.0656,-0.0648,-0.0705,-0.0698,-0.0759,-0.0759,-0.0759,-0.0759,-0.0759,0,-0.0464,-0.0486,-0.0475,-0.0487,-0.0518,-0.0524,-0.0563,-0.0594,-0.0611,-0.0614,-0.066,-0.065,-0.0705,-0.0711,-0.072,-0.069,-0.0734,-0.0668,-0.0644,-0.0721,-0.0718,-0.0705,-0.0699,-0.0758,-0.0758,-0.0758,-0.0758,0,-0.0501,-0.0495,-0.0516,-0.0525,-0.0533,-0.0558,-0.0564,-0.0574,-0.06,-0.0602,-0.0608,-0.0629,-0.0629,-0.0665,-0.0686,-0.067,-0.066,-0.0642,-0.0703,-0.0682,-0.0558,-0.0556,-0.0549,-0.0547,-0.0544,-0.0542,-0.0541,0,-0.0513,-0.0524,-0.0541,-0.0544,-0.0554,-0.0572,-0.0573,-0.0582,-0.0576,-0.0565,-0.0552,-0.0559,-0.057,-0.0535,-0.0581,-0.0587,-0.059,-0.0576,-0.0597,-0.0564,-0.0542,-0.0543,-0.0543,-0.0537,-0.0536,-0.0536,-0.0535,0,-0.0532,-0.0547,-0.0554,-0.0558,-0.0563,-0.0563,-0.0558,-0.0544,-0.0533,-0.0543,-0.0478,-0.0463,-0.0457,-0.0473,-0.0492,-0.0496,-0.0582,-0.0551,-0.0556,-0.0576,-0.0549,-0.053,-0.0533,-0.0527,-0.0528,-0.0529,-0.053,0,-0.054,-0.0545,-0.0542,-0.0551,-0.0557,-0.0547,-0.055,-0.0501,-0.0485,-0.0456,-0.042,-0.0422,-0.043,-0.0421,-0.0427,-0.0438,-0.0434,-0.0425,-0.0437,-0.0446,-0.0433,-0.0385,-0.0298,0,0,0,0,0,-0.0526,-0.0516,-0.0521,-0.0523,-0.0536,-0.0539,-0.0525,-0.0516,-0.0489,-0.0426,-0.0418,-0.0397,-0.0373,-0.0371,-0.0366,-0.0408,-0.0465,-0.04,-0.047,-0.0482,-0.0492,-0.0489,0,0,0,0,0,0,-0.0501,-0.0506,-0.0506,-0.0498,-0.0499,-0.0501,-0.0495,-0.0484,-0.0441,-0.0413,-0.0407,-0.0371,-0.0374,-0.0383,-0.0361,-0.0364,-0.0396,-0.0396,-0.0395,-0.0477,-0.0486,-0.0493,-0.0493,0,0,0,0,0]}]]